OPS 4682 DEB, 38444

Orbit data source: Space-Track

OPS 4682 DEB, 38444 is space debris in LEO originally from a launch on Sat, 03 Apr 1965 UTC launched from the Air Force Western Test Range (AFWTR). Debris objects in space refer to the collection of defunct objects orbiting the Earth. Examples of debris include non-operational satellites, rocket bodies, and fragments generated from explosions, collisions, or faulty payload assembly.

Loading next visibility...
Identifier
38444, 1965-027EZ
Orbit
LEO
Country
Flag of USUS
Related business
Manufacturer
Unknown
Mission
Spacecraft
Bus & Motor
Unknown
Mass
Unknown
Launch date (UTC)
1965-04-03 (61 years ago)
Launch vehicle
Unknown
Launch site
Air Force Western Test Range (AFWTR)
Object type
Payload
Rocket body
Debris
Shape & HBR
Unknown shape, 0.1 m
Radar Cross Section
Medium (>0.1 m² and <1 m²)

Expand to show TLE details & history
Last TLE update: 1 day ago

TLE from 1 day ago
0 OPS 4682 DEB
1 38444U 65027EZ  26174.26574724 -.00000138  00000-0 -50807-3 0  9997
2 38444  90.2451  10.0973 0026084 164.1496 196.0446 12.96350295635216
Epoch: 2026-06-23T06:22Z
TLE epoch observation values (Epoch: 2026-06-23T06:22:40.561Z)
Latitude
-0.00004°
Longitude
2.98851°
Altitude
1,298.494 km
Speed
7.198 km/s
True Right ascension
00h 40m 23s
True Declination
0° 00' 00"
Sunlit
Object was in daylight at epoch
Visualization orbit readout
Latitude
Unknown
Longitude
Unknown
Altitude
Unknown
Speed
Unknown
Apparent Right ascension
Unknown
Apparent Declination
Unknown
Sunlit
N/A
Visualization observer readout
Local Sidereal Time
03:14:04
Azimuth
Unknown
Elevation
Unknown
Doppler factor
Unknown
Orbital elements
Apogee altitude
1,293.511 km
Perigee altitude
1,253.594 km
Semi-major axis
7,651.689 km
Eccentricity
0.00261
Inclination
90.2451°
RAAN
10.0973°
Arg. of periapsis
164.1496°
True anomaly
195.96225°
Mean anomaly
196.0446°
Eccentric anomaly
196.0034°
Mean motion
3.2427 °/min
Orbital period
111.02 mins
BSTAR
-0.00050807
Loading maneuver chart data...
Computing Atmospheric mass density...
Loading historical data...
Loading historical data...
Loading historical data...
Loading historical data...
Loading historical data...
Loading historical data...
Loading historical data...

Documentation

Showing up to 5 results
|